Погода в Певеке

Погода в Певеке : погода сейчас, прогноз погоды и архив. Всё, что Вы хотите узнать о погоде в Певеке!

Хотите узнать прогноз погоды в Певеке? Тогда Вам сюда: Погода в Певеке

Поиск расширенной информации на нашем сайте:

Другие новости

Новости СМИ2

Главная страница сайта

Новости сайта

03.07.2017

Напоминаем, что на нашем специализированном сайте Метеоцентр.Азия вы можете получить высокодетализированные автоматические прогнозы погоды по пунктам России, СНГ и мира в авиационном формате (включающие направление и скорость ветра, видимость, явления погоды, количество и форму облачности, нижнюю и верхнюю границу облачности).


Погода в Певеке - сегодня

Время (UTC), дата Ветер
(°,м/с) 
Видим.   Явления Облачность Т
(°С)
Тd
(°С)
f(%) Тe
(°С)
Pmin
(гПа)
dP
(гПа)
Po
(мм)
O2
(г/м3)
Тmin Tmax R s Состояние
почвы
12 15.04.18 020 (С) 1{04}  20000 м    10/0 средняя, верхняя 
[Ac trans|Ci fib]
-9 -11.8 80 -9  1008.3  -1.6  756  316           
15 15.04.18 230 (ЮЗ) 3{06}  20000 м    3/0 средняя 
[Ac trans]
-13.9 -16.3 82 -17  1007.7  -0.6  755  322           
18 15.04.18 300 (СЗ) 1{05}  20000 м    6/0 средняя, верхняя 
[Ac trans|Ci fib]
-12.8 -15.5 80 -13  1007.3  -0.4  755  321           
00 16.04.18 300 (СЗ) 1{03}  20000 м    10/0 верхняя 
[Ci sp]
-8.3 -12.6 71 -8  1004.7  -1.8  753  314           
03 16.04.18 230 (ЮЗ) 3{05}  20000 м    10/0 средняя, верхняя 
[Ac trans|Ci sp]
-7.5 -10.2 81 -10  1002.1  -2.6  751  312           
06 16.04.18 010 (С) 2{04}  20000 м    10/0 средняя, верхняя 
[Ac lent|Ci sp]
-6.3 -8.9 82 -8  999.3  -2.8  749  310           
09 16.04.18 100 (В) 5-10{16}  20000 м    10/3 600 м средняя 
[Sc|Ac und]
-3.3 -6.8 77 -7  997.4  -1.9  748  306    -2.2       
15 16.04.18 160 (Ю) 2{15}  20000 м    3/3 600 м 
[Sc]
-3 -6.7 76 -4  997.5  1.1  748  305           
18 16.04.18 010 (С) 2{08}  20000 м    4/0 средняя, верхняя 
[Ac trans|Ci fib]
-6.1 -8.5 83 -8  998.7  1.2  749  309           
00 17.04.18 110 (В) 5{14}  20000 м    9/0 верхняя 
[Ci sp]
+3 -4.7 57 +1  1000.6  1.2  750  299           
03 17.04.18 120 (ЮВ) 7{11}  20000 м    8/0 верхняя 
[Ci sp]
+3 -4.7 57 1000.9  0.3  750  299           
06 17.04.18 100 (В) 6{10}  20000 м    10/0 верхняя 
[Ci sp]
+3.3 -4.7 56 1001.1  0.2  750  299           
12 17.04.18 110 (В) 7{09}  20000 м    8/0 верхняя 
[Ci sp]
+1.7 -6.4 55 -2  1001.3  -0.2  750  301           
15 17.04.18 220 (ЮЗ) 1{10}  20000 м    8/0 средняя, верхняя 
[Ac trans|Ci sp]
-2.9 -6.2 78 -2  1001.3  750  306           
18 17.04.18 тихо () {02}  20000 м    10/0 средняя, верхняя 
[Ac trans|Ci sp]
-3.5 -5.7 85 -4  1001.5  0.2  751  307           
21 17.04.18 120 (ЮВ) 5{10}  20000 м  {снег}  9/0 средняя 
[Ac trans]
+1.3 -3.8 69 -1  1002.9  1.4  752  302  -5    0.0  11  неравномерный
мокрый или
старый снег
100% 
03 18.04.18 280 (З) 2{07}  20000 м    8/1 600 м средняя, верхняя 
[Sc|Ac trans|Ci fib]
+1.4 -2.2 77 +1  1004.9  753  302           
06 18.04.18 310 (СЗ) 4{04}  20000 м    4/3 600 м средняя 
[Cu hum|Ac trans]
+0.9 -2 81 -1  1005.8  0.9  754  303           
12 18.04.18 тихо () {04}  20000 м    1/1 600 м 
[Cu hum]
-2.3 -4.4 85 -2  1007.9  0.7  755  307           
15 18.04.18 040 (СВ) 2{03}  20000 м    ясно 
-3.5 -5.4 87 -5  1008.8  0.9  756  309           
18 18.04.18 060 (СВ) 2{05}  20000 м    8/0 средняя 
[Ac trans]
-0.4 -5 71 -1  1009.4  0.6  757  306           
21 18.04.18 230 (ЮЗ) 1{04}  20000 м    9/0 средняя, верхняя 
[Ac trans|Ci fib]
-3.1 -5.3 85 -3  1010.3  0.9  757  309  -4.5      10  неравномерный
мокрый или
старый снег
100% 
00 19.04.18 220 (ЮЗ) 4{04}  20000 м    1/0 средняя 
[Ac trans]
-2.1 -4.1 86 -5  1010.7  0.4  758  308           
03 19.04.18 230 (ЮЗ) 1{04}  20000 м    1/0 верхняя 
[Ci sp]
-0.7 -3.7 80 1011.2  0.5  758  307           
06 19.04.18 250 (З) 1{02}  20000 м    8/6 300 м верхняя 
[St|Ci sp]
-1.1 -4.5 78 -1  1011.8  0.6  758  307           
Время (UTC), дата Ветер
(°,м/с) 
Видим.   Явления Облачность Т
(°С)
Тd
(°С)
f(%) Тe
(°С)
Pmin
(гПа)
dP
(гПа)
Po
(мм)
O2
(г/м3)
Тmin Tmax R s Состояние
почвы

Для получения пояснительной информации подведите курсор к названию столбца.

ПОГОДА в Певеке - архив

Всё, что Вы хотите узнать о погоде в Певеке - удобно и подробно!

Выберите нужную дату (начиная с 1 января 2015* года) и нажмите кнопку "Найти".
Будут отображены архивные сводки погоды по пункту Певек, начиная с указанной даты.


Отображать данные в формате CSV (для использования в таблицах Excel)


Внимание! Наш архив погоды предназначен исключительно для личного некоммерческого использования в познавательных целях. Если Вам необходимы официальные справки о состоянии погоды (для производственных, юридических, коммерческих и т.п. целей), обращайтесь в органы Росгидромета.

*Примечание: данная дата относится к архиву по метеостанциям СССР (Россия, СНГ, Балтия).
Архив по метеостанциям Зарубежной Европы и Азии (кроме Китая) хранится 10 дней, по другим регионам земного шара (Китай, Африка, Америка, Австралия, Океания) - 1 день.

Певек - район местоположения метеостанции


Название, широта, долгота, высота метеостанции:
Певек 69.7°ш. 170.3°д. 6 м над ур. моря [Российская Федерация]

Дополнительная информация

В oтличие oт бoльшинства пoгoдных сайтoв мы публикуем пoдрoбную метеoинфoрмацию в детальнoм прoфессиoнальнoм фoрмате.

Характеристики температуры и влажнoсти вoздуха измеряются на высoте 2 м в тени вдали oт зданий и деревьев.
Скoрoсть ветра измеряется на высoте 10 м (на урoвне рoста челoвека скoрoсть ветра ниже в 1.5-2 раза). Если метеoстанция нахoдится в гoрoде или в лесу, тo скoрoсть ветра занижена на 2-4 м/с пo сравнению с oткрытым местoм. Скoрoсть ветра над акватoриями крупных рек и oзёр, а также на вершинах хoлмoв на 2-5 м/с выше, чем в oбычных услoвиях.
Атмoсфернoе давление в разных тoчках местнoсти мoжет значительнo oтличаться oт давления на метеoстанции, в зависимoсти oт услoвий рельефа (при пoдъёме на 10 м давление пoнижается примернo на 1 мм рт.ст.).